Flag for France Weather past 2 weeks in Le Mans, France

Now
59 °F

Clear.


Feels Like: 59 °F
Forecast: 56 / 80 °F
Wind: 2 mph from North

Location: Le Mans Airport

Current Time: Jul 30, 2014 at 3:32:04 AM

Latest Report: Jul 30, 2014 at 2:30 AM


Visibility: N/A

Pressure: 30.01 "Hg

Humidity: 82%

Dew point: 54 °F

Location of Le MansLocation

Historic Weather in Le Mans — Graph

°F

Le Mans temperature yesterday

Maximum temperature yesterday: 72 °F (at 3:00 PM)
Minimum temperature yesterday: 55 °F (at 7:00 AM)
Average temperature yesterday: 64 °F

Past Weeks' High & Low Weather Summary

 TemperatureHumidityPressure
High93 °F (Jul 17, 5:00 PM)100% (Jul 15, 7:00 AM)30.18 "Hg (Jul 15, 7:00 AM)
Low55 °F (Jul 15, 6:00 AM)32% (Jul 17, 5:30 PM)29.74 "Hg (Jul 19, 3:30 AM)
Average72 °F71%29.99 "Hg
* Reported Jul 15 2:00 AM — Jul 30 2:30 AM, Le Mans, Weather by CustomWeather, © 2014

Note: Actual official high and low records may vary slightly from our data, if they occured in-between our weather recording intervals... More about our weather records

Advertising

Le Mans weather history for previous 24 hours

 ConditionsComfort  
Time TempWeatherWind HumidityBarometerVisibility
2:30 AM
Jul 30
59 °FClear.2 mph82%30.01 "HgN/A
2:00 AM61 °FClear.2 mph77%30.01 "HgN/A
1:30 AM61 °FClear.2 mph77%30.01 "HgN/A
1:00 AM63 °FClear.3 mph68%30.01 "HgN/A
12:30 AM63 °FClear.2 mph68%30.01 "HgN/A
12:00 AM64 °FClear.3 mph68%30.01 "HgN/A
11:30 PM
Jul 29
64 °FClear.3 mph68%30.01 "HgN/A
11:00 PM66 °FClear.2 mph73%30.01 "HgN/A
10:30 PM66 °FClear.5 mph78%30.01 "HgN/A
10:00 PM68 °FFog.3 mph73%29.98 "Hg2 mi
9:30 PM68 °FClear.3 mph73%29.98 "HgN/A
9:00 PM70 °FClear.5 mph73%29.98 "HgN/A
8:30 PM70 °FOvercast.7 mph69%29.98 "HgN/A
8:00 PM70 °FMostly cloudy.9 mph73%29.98 "HgN/A
7:30 PM68 °FMostly cloudy.7 mph78%29.98 "HgN/A
7:00 PM68 °FOvercast.8 mph78%29.98 "HgN/A
6:30 PM66 °FMostly cloudy.7 mph83%29.98 "HgN/A
6:00 PM66 °FMostly cloudy.6 mph83%29.98 "HgN/A
5:30 PM66 °FMostly cloudy.8 mph88%29.98 "HgN/A
5:00 PM66 °FLight rain. Mostly cloudy.6 mph88%29.98 "HgN/A
4:30 PM66 °FLight rain. Overcast.9 mph83%29.98 "Hg5 mi
4:00 PM70 °FMostly cloudy.10 mph69%29.98 "HgN/A
3:30 PM72 °FMostly cloudy.10 mph69%29.98 "HgN/A
3:00 PM72 °FMostly cloudy.13 mph65%29.98 "HgN/A
2:30 PM70 °FMostly cloudy.12 mph69%29.98 "HgN/A
2:00 PM70 °FMostly cloudy.13 mph69%29.98 "HgN/A
1:30 PM68 °FPartly sunny.9 mph73%29.98 "HgN/A
1:00 PM68 °FMostly cloudy.8 mph73%29.98 "HgN/A
12:30 PM64 °FOvercast.12 mph83%29.98 "HgN/A
12:00 PM64 °FOvercast.7 mph78%29.98 "HgN/A
11:30 AM64 °FOvercast.9 mph78%29.98 "HgN/A
11:00 AM64 °FOvercast.9 mph78%29.98 "HgN/A
10:30 AM63 °FOvercast.5 mph83%29.98 "HgN/A
10:00 AM61 °FOvercast.5 mph88%29.98 "HgN/A
9:30 AM61 °FFog.3 mph83%29.98 "Hg3 mi
9:00 AM59 °FMostly cloudy.6 mph88%29.98 "HgN/A
8:30 AM59 °FMostly cloudy.5 mph88%29.98 "HgN/A
8:00 AM57 °FMostly cloudy.5 mph94%29.98 "HgN/A
7:30 AM57 °FOvercast.3 mph94%29.98 "HgN/A
7:00 AM55 °FPassing clouds.3 mph94%29.98 "HgN/A
6:30 AM57 °FClear.3 mph88%29.98 "HgN/A
6:00 AM57 °FClear.3 mph88%29.98 "HgN/A
5:30 AM57 °FClear.2 mph88%29.98 "HgN/A
4:30 AM59 °FClear.1 mph82%29.98 "HgN/A
4:00 AM59 °FClear.5 mph82%29.98 "HgN/A
3:30 AM59 °FClear.5 mph88%29.98 "HgN/A
3:00 AM59 °FClear.6 mph88%29.98 "HgN/A
Weather by CustomWeather, © 2014

See weather overviewHow to use our weather pages